Regional Weather Roundup
Issued by NWS

Home | Current Version | Previous Version | Graphics & Text | Print | Product List | Glossary On
Versions: 1 2 3 4 5 6 7 8 9 10 11 12 13 14 15 16 17 18 19 20 21 22 23 24 25 26 27 28 29 30 31 32 33 34 35 36 37 38 39 40 41 42 43 44 45 46 47 48 49 50
000
ASUS43 KIND 250259
RWRIN

WEATHER ROUNDUP FOR INDIANA
NATIONAL WEATHER SERVICE INDIANAPOLIS IN
1100 PM EDT SUN MAY 24 2015

NOTE: "FAIR" INDICATES FEW OR NO CLOUDS BELOW 12,000 FEET WITH NO
SIGNIFICANT WEATHER AND/OR OBSTRUCTIONS TO VISIBILITY.

* - STATION DOES NOT REPORT WEATHER SUCH AS PRECIPITATION OR FOG.

+ - STATION NOT QUALITY CONTROLLED BY THE NATIONAL WEATHER SERVICE.
    USE DATA WITH CAUTION...ESPECIALLY DEWPOINT AND RELATIVE
    HUMIDITY OBSERVATIONS.

INZ001>003-010>013-019-020-250400-
NORTHWEST INDIANA

CITY           SKY/WX    TMP DP  RH WIND       PRES   REMARKS
GARY /AIRPORT/ MOCLDY    79  61  53 SE14      29.95S
RENSSELAER +   PTCLDY    75  61  60 S16       29.99S

$$

LMZ046-743>745-250400-
SOUTHERN LAKE MICHIGAN

STATION/POSITION TIME  TEMP    WIND        PRES    WAVE
                       AIR SEA DIR/SP/G            HT
                 (UTC) (F)     (DEG/KT/KT) (MB)    (FT)
BURNS HARBOR     0200   77     180/ 10/ 17 1014.9R
MICHIGAN CITY    0200   78     160/ 14/ 17   N/A
5NW MICH CITY    0200   70 55  180/ 12/ 14   N/A     1

$$

INZ004-005-014>016-021>024-250400-
NORTH CENTRAL INDIANA

CITY           SKY/WX    TMP DP  RH WIND       PRES   REMARKS
GOSHEN         PTCLDY    74  54  49 S15       30.02S
SOUTH BEND     PTCLDY    76  54  46 S9        30.01R

$$

INZ006>009-017-018-025>027-250400-
NORTHEAST INDIANA

CITY           SKY/WX    TMP DP  RH WIND       PRES   REMARKS
ANGOLA *+      CLEAR     73  55  53 S9        30.06R
FORT WAYNE     MOCLDY    73  54  51 S13       30.07R

$$

INZ028-029-035-036-043>045-051>053-250400-
WEST CENTRAL INDIANA

CITY           SKY/WX    TMP DP  RH WIND       PRES   REMARKS
CRAWFORDSVL +  PTCLDY    72  55  55 SE10      30.03S
GREENCASTLE +  MOCLDY    72  57  60 S10       30.05S
LAFAYETTE      CLEAR     74  60  61 S8        30.01R
TERRE HAUTE    MOCLDY    75  61  61 S13       30.02R

$$

INZ030>032-037>040-046>048-054>057-064-065-250400-
CENTRAL INDIANA

CITY           SKY/WX    TMP DP  RH WIND       PRES   REMARKS
GREENWOOD *+   PTCLDY    73  54  49 SE8       30.08R
INDIANAPOLIS   MOCLDY    74  57  55 S13       30.04S
-EAGLE CREEK   PTCLDY    75  58  55 S9        30.05S
KOKOMO *+      CLEAR     73  55  53 S14       30.05R
MT COMFORT *+  CLEAR     73  45  35 S8        30.08R
SHELBYVILLE    CLEAR     76  56  49 S12       30.08R

$$

INZ033-034-041-042-049-050-058-059-250400-
EAST CENTRAL INDIANA

CITY           SKY/WX    TMP DP  RH WIND       PRES   REMARKS
MUNCIE         CLEAR     74  54  49 S8        30.08R

$$

INZ060-061-067>069-081>083-085>088-250400-
SOUTHWEST INDIANA

CITY           SKY/WX    TMP DP  RH WIND       PRES   REMARKS
EVANSVILLE     PTCLDY    75  64  68 S8        30.04R
HUNTINGBURG *+ MOCLDY    77  61  57 SE13G21   30.07R

$$

INZ062-063-066-070>080-084-089>092-250400-
SOUTH CENTRAL AND SOUTHEAST INDIANA

CITY           SKY/WX    TMP DP  RH WIND       PRES   REMARKS
BLOOMINGTON    MOCLDY    73  61  65 SE8       30.06R
MADISON *+     PTCLDY    73  52  46 SE8       30.13R
SEYMOUR +      PTCLDY    75  57  53 SE8       30.08R

$$




USA.gov is the U.S. government's official web portal to all federal, state and local government web resources and services.